RH
32 42 44 40 39 39 38 29 29 26 27 28 26 28 24 34 50 56 67 79 86 74 75 70 67 62 56 48 43 47 49 44 48 51 53 52 49 48 44 44 44 43 44 45
33 42 38 39 36 34 32 28 29 30 27 25 23 26 21 26 41 42 58 73 72 82 95 86 74 67 62 56 46 43 48 46 48 50 51 51 52 54 50 52 50 48 47 49
35 36 34 35 31 34 30 35 36 36 28 25 26 25 20 19 24 36 48 52 62 66 71 92 92 71 66 64 55 45 46 47 48 51 54 57 60 62 61 61 56 54 52 52
33 31 36 34 34 36 32 36 37 34 31 31 24 24 18 16 23 26 42 51 60 65 69 70 79 93 74 68 64 52 48 48 49 54 59 62 65 64 60 59 58 55 56 56
35 40 45 34 42 38 36 37 38 37 35 31 27 34 17 21 19 19 23 49 54 69 77 84 71 83 82 74 69 62 50 50 50 57 60 60 56 54 57 61 60 58 56 57
32 34 42 39 37 37 36 34 31 33 39 50 33 32 29 19 22 18 15 25 52 62 68 76 74 76 72 71 73 71 57 54 54 58 60 58 54 55 63 62 61 58 59 56
28 28 32 40 34 35 33 39 51 49 52 41 37 39 25 20 20 23 23 21 35 51 64 75 79 88 78 76 81 78 67 60 57 59 58 58 57 58 59 62 61 60 60 62
38 47 30 31 39 44 42 42 47 48 38 32 28 34 27 22 20 20 24 27 30 38 43 64 69 73 80 88 85 80 73 64 60 60 58 58 60 64 63 60 58 59 59 61
28 22 28 36 39 42 35 41 37 43 31 40 26 21 16 17 23 25 27 30 30 37 40 43 54 61 66 75 87 84 78 70 68 62 62 60 63 65 63 60 60 60 60 64
27 34 28 30 38 42 43 34 39 42 49 45 28 24 29 24 22 24 26 28 32 41 50 53 50 46 49 65 74 84 80 78 76 71 64 59 60 64 64 62 63 64 66 67
29 33 20 30 33 29 36 36 38 38 35 42 40 30 20 27 23 24 25 25 26 35 42 51 54 61 57 48 71 80 78 73 71 68 71 74 74 70 70 70 70 66 68 69
27 26 35 20 24 32 33 32 32 38 33 32 35 38 17 18 17 23 21 20 21 31 41 53 60 64 68 62 67 68 78 75 76 74 73 75 77 78 77 72 71 69 70 67
25 23 30 14 31 31 33 27 33 29 35 38 36 30 17 18 20 19 19 18 17 20 34 42 56 64 71 70 70 71 74 74 76 75 77 81 79 82 81 73 75 74 64 56
34 26 26 24 16 17 21 19 20 31 47 35 27 25 20 18 19 19 18 17 18 19 19 38 50 59 67 71 71 71 71 75 81 82 86 88 89 86 86 77 67 54 46 42
36 32 26 28 26 30 29 28 26 32 32 40 32 28 22 22 23 22 20 20 20 22 24 38 53 60 65 69 70 70 71 78 82 85 85 84 82 80 79 67 54 41 38 33
37 40 29 42 26 21 32 30 26 25 24 28 28 30 21 21 22 24 23 23 25 25 27 32 53 62 64 67 71 73 76 77 77 77 77 77 74 64 54 44 39 34 31 30
32 39 34 35 23 22 27 19 18 21 25 27 28 22 23 26 27 27 26 27 26 24 26 36 49 61 64 66 72 76 75 74 74 72 66 62 60 56 49 38 34 32 31 31
23 25 35 39 30 41 18 18 22 27 23 20 25 26 25 27 27 28 26 28 27 26 30 32 38 55 63 64 67 70 72 67 66 69 66 56 46 40 35 32 33 33 33 34
28 32 33 39 31 23 21 20 28 35 25 22 22 21 25 26 32 31 27 27 29 33 36 39 37 48 63 65 64 62 60 56 53 51 47 42 38 35 32 33 34 35 36 37
49 42 35 34 45 44 21 33 32 33 32 19 27 28 27 30 34 26 26 29 34 38 44 48 47 53 64 66 62 58 56 53 50 46 42 38 35 32 34 36 39 38 36 36
57 53 54 46 48 29 20 22 35 36 28 29 29 26 26 33 27 27 30 33 39 44 49 54 56 60 64 63 59 57 54 52 48 42 38 36 33 33 36 36 36 39 34 32
34 43 49 42 44 53 23 38 38 24 27 26 27 29 35 32 29 31 29 32 39 46 54 62 63 64 63 61 58 56 52 48 43 39 38 36 36 38 32 53 46 30 30 41
44 30 31 29 32 23 25 26 25 25 31 32 33 30 29 31 33 31 34 35 37 44 54 63 63 63 64 59 57 53 51 45 44 43 42 40 36 33 33 59 40 42 46 46
35 32 45 49 38 32 28 27 26 26 27 27 28 31 32 34 33 35 35 37 42 45 50 58 60 60 57 56 54 52 48 48 44 42 42 38 35 40 43 52 42 46 48 46
50 42 50 54 46 48 40 44 48 44 38 37 35 35 34 34 37 35 36 37 39 48 53 56 57 56 54 52 51 50 47 44 42 43 43 44 51 50 66 52 49 47 46 45
91 92 84 83 65 96 87 67 70 70 60 59 64 58 44 40 40 39 40 38 39 50 54 56 56 54 51 48 48 48 44 40 41 45 47 57 58 59 51 52 53 51 56 42
Wind_Speed
3 8 10 11 10 9 6 5 4 4 3 5 12 12 9 5 11 11 12 11 6 4 9 8 14 17 17 18 20 20 20 20 19 17 15 14 13 11 10 9 10 9 9 9
1 10 9 8 7 7 7 4 6 3 5 5 5 12 14 9 9 12 16 16 16 9 7 6 14 17 19 20 21 21 22 23 21 18 16 14 13 10 11 11 10 9 9 9
6 8 10 6 7 12 6 10 8 9 10 7 7 12 12 11 10 10 11 14 13 14 9 9 11 16 19 20 22 25 25 25 24 20 18 13 13 11 11 11 11 10 8 9
3 7 8 6 6 9 4 8 9 9 9 2 4 4 10 12 13 14 15 16 12 12 6 1 3 13 18 22 24 26 27 26 25 26 24 22 19 14 11 13 11 12 10 9
4 7 9 8 7 9 6 9 8 8 9 6 6 4 8 4 8 12 13 15 16 12 11 9 9 18 21 23 23 24 25 26 26 27 24 25 20 17 16 14 13 11 11 9
6 2 3 6 10 6 11 9 8 6 5 3 6 3 6 1 3 6 9 14 16 15 17 14 18 16 23 23 24 24 27 28 27 29 26 26 24 22 21 20 18 16 14 12
7 1 2 4 10 4 11 10 3 2 1 3 2 5 9 9 8 4 4 3 9 15 16 13 15 18 23 26 29 28 29 29 30 31 31 28 27 27 26 25 22 18 16 14
6 3 5 7 4 6 7 6 4 5 7 11 3 4 1 4 5 4 4 4 3 2 8 17 17 22 23 24 26 27 31 31 31 31 29 26 23 23 22 26 24 21 18 15
6 5 1 2 3 4 4 2 3 5 8 6 3 6 9 4 3 5 3 3 3 4 6 7 10 24 24 25 24 31 28 27 29 30 29 27 24 22 22 24 23 22 20 17
3 6 2 1 3 3 3 5 3 2 5 8 8 11 4 4 2 4 7 6 2 4 6 8 9 16 19 25 27 29 29 31 29 28 31 35 36 28 23 28 27 25 24 21
4 2 5 3 3 7 3 2 3 3 4 5 9 5 6 1 4 3 4 8 8 2 3 5 6 12 16 20 21 25 28 27 29 30 26 24 26 32 28 26 27 24 24 24
3 5 5 14 2 2 5 6 7 4 5 7 7 13 5 7 8 5 8 8 9 8 4 5 6 9 12 14 14 20 19 23 25 28 28 26 27 30 29 28 27 25 25 21
2 3 6 5 2 2 4 4 9 9 7 14 11 7 1 3 4 9 12 14 9 10 10 7 6 8 10 12 15 17 18 21 24 26 32 31 31 31 26 30 28 25 24 22
1 6 10 12 15 14 17 18 13 10 9 14 15 24 20 18 19 18 15 13 16 13 12 9 8 5 9 11 14 16 18 21 24 30 31 30 29 31 29 26 27 25 25 23
4 9 12 17 17 18 20 22 20 16 20 15 22 20 23 20 19 19 15 13 11 11 11 10 8 6 7 10 11 12 14 18 24 28 31 33 31 32 31 28 26 23 24 22
5 9 10 16 18 15 16 20 22 20 21 18 23 24 20 11 10 12 12 13 13 9 9 9 9 7 8 9 12 10 12 17 22 25 27 31 32 30 29 26 25 23 23 21
11 6 9 15 14 12 15 11 13 9 9 13 14 15 8 9 10 9 8 8 9 8 7 7 10 9 10 13 14 18 20 21 21 25 27 28 29 28 26 26 24 24 22 20
19 16 6 10 12 9 8 7 10 11 18 16 16 17 13 10 7 10 9 7 8 8 8 7 8 12 13 12 14 17 19 21 23 24 24 25 26 26 26 24 23 21 20 18
13 11 8 5 10 17 19 13 3 6 12 8 13 16 10 6 5 10 7 6 6 5 6 8 8 12 14 16 17 20 20 19 20 22 24 26 27 27 26 24 22 20 19 16
4 11 9 7 8 8 7 2 1 1 14 4 1 5 7 4 5 6 4 3 4 4 4 5 5 10 14 17 19 20 21 21 23 25 25 25 26 27 25 24 22 20 16 14
3 5 13 14 11 10 7 5 3 6 4 5 1 5 9 10 10 4 2 5 5 4 5 4 8 12 15 18 20 20 22 21 22 24 26 26 26 26 27 25 21 17 15 12
9 6 6 7 10 13 3 6 5 10 13 15 11 7 10 11 12 12 11 7 6 6 6 8 9 13 16 19 21 20 20 22 27 29 30 30 29 27 28 23 18 15 13 11
9 12 13 15 12 13 6 12 15 16 15 15 15 14 13 13 15 17 14 9 7 9 9 11 13 14 16 19 21 21 23 31 31 30 29 29 28 27 25 21 17 15 12 10
17 14 14 17 16 18 19 23 24 22 20 18 13 14 14 14 16 15 15 10 7 9 11 12 14 15 15 19 20 23 29 31 31 29 28 29 29 26 21 18 15 13 12 10
12 19 22 22 21 21 18 18 21 23 22 20 18 17 17 15 15 16 13 12 9 11 13 16 17 17 17 20 21 26 31 34 31 30 29 26 25 24 19 14 12 10 9 9
7 7 5 5 18 12 18 21 22 23 21 21 21 21 18 16 15 12 13 14 14 11 13 15 17 18 22 26 24 26 30 33 35 30 25 23 23 21 17 14 11 11 8 8
Wind_Direction
10 35 18 354 349 334 330 296 347 42 351 256 230 245 242 228 202 191 188 174 139 168 158 206 213 209 198 194 191 190 182 180 176 176 174 173 174 172 169 164 165 166 162 160
346 32 2 335 313 307 321 319 20 129 4 288 204 250 240 213 233 205 183 185 201 161 166 186 209 214 206 200 193 194 193 184 183 180 181 177 175 181 173 169 163 168 167 167
360 5 328 330 352 341 52 9 356 341 313 251 285 258 241 234 221 218 219 209 184 193 171 147 242 220 211 207 201 200 196 189 183 178 171 166 168 166 173 174 167 169 172 173
8 350 345 343 22 350 353 4 330 319 320 339 337 310 183 221 212 219 206 207 200 190 158 198 194 268 222 223 212 204 197 192 188 179 175 175 173 177 186 177 175 170 178 176
32 343 350 1 353 332 349 324 308 312 307 307 190 278 274 115 248 240 223 199 200 184 181 194 216 211 247 218 221 215 202 194 192 186 186 182 180 178 167 171 176 166 171 181
314 338 298 330 317 290 310 295 277 281 301 266 41 320 287 229 360 305 250 212 203 197 197 199 203 236 255 232 214 207 207 200 195 189 193 188 180 172 166 169 171 171 174 183
339 327 339 312 320 195 340 340 331 344 288 327 101 293 265 301 346 291 300 269 211 200 203 203 200 214 228 216 212 204 206 202 198 195 196 193 185 178 177 173 171 170 172 177
333 318 2 3 6 318 332 339 357 320 341 316 220 262 46 99 334 321 283 279 244 252 217 196 203 202 215 211 204 206 204 204 199 198 194 192 188 180 180 175 171 174 175 176
342 331 117 6 333 326 3 347 342 293 291 273 255 260 261 227 80 37 32 311 235 208 227 241 236 230 228 219 214 211 209 209 198 198 190 183 182 184 180 178 173 174 165 174
22 293 89 12 273 192 277 337 273 208 301 325 300 303 254 217 113 33 34 34 21 188 223 238 246 242 245 232 218 212 209 203 202 200 194 190 179 183 180 179 175 174 172 174
319 250 314 250 196 331 217 219 228 303 271 302 308 305 29 292 253 302 348 352 335 263 223 237 236 253 250 235 214 211 205 202 196 193 192 186 173 174 184 184 180 165 165 166
43 310 289 293 52 304 275 288 294 287 293 257 276 283 311 340 285 266 285 308 319 293 257 235 252 239 250 243 226 218 200 197 192 185 180 177 173 174 175 170 171 163 158 161
108 242 299 309 155 171 244 277 263 291 293 263 274 263 163 296 251 246 264 276 301 285 282 274 207 220 229 228 227 212 204 187 179 173 168 167 171 161 169 162 166 157 154 151
210 256 258 281 293 314 296 287 267 255 273 267 262 280 289 296 301 302 292 294 297 300 281 268 275 230 198 214 214 207 192 177 168 164 162 158 159 156 159 159 150 155 148 143
239 259 273 277 287 292 285 280 277 255 251 263 278 283 287 303 307 301 302 301 297 293 284 260 248 238 217 184 188 189 161 168 171 160 152 150 152 158 160 153 143 150 138 140
222 263 286 284 289 284 291 281 271 266 261 257 262 273 285 300 300 306 298 296 298 289 286 267 241 221 202 196 177 167 168 165 156 147 139 142 151 145 146 144 143 140 135 145
235 255 291 276 288 299 289 272 266 247 237 233 266 274 347 297 314 310 310 308 298 296 294 246 229 226 208 177 177 167 157 148 139 136 138 140 142 141 143 145 141 138 141 140
260 259 263 289 291 248 251 283 275 270 281 278 260 272 287 287 290 291 281 282 312 328 318 287 244 212 203 185 164 152 149 145 141 142 146 147 146 145 145 141 140 140 141 143
247 252 250 264 251 281 286 284 194 210 278 293 268 282 260 266 305 269 228 238 276 311 319 308 269 217 194 182 177 164 159 157 152 153 154 154 152 146 144 141 139 139 142 149
208 233 237 240 261 273 347 87 99 252 293 303 260 278 238 178 260 323 168 221 273 290 297 298 253 202 191 188 176 173 170 164 162 161 158 155 151 146 143 140 141 145 150 153
183 205 222 237 256 270 303 291 165 249 346 37 315 260 230 220 242 356 273 239 237 279 281 233 200 204 197 186 179 178 172 172 165 157 152 149 148 143 143 146 144 149 153 157
250 232 215 237 254 274 288 112 224 332 331 333 328 318 303 275 265 290 292 256 248 236 221 204 208 196 199 183 181 176 171 164 154 150 148 147 148 148 151 141 147 151 161 164
266 260 272 270 260 299 312 290 286 301 306 309 308 307 303 301 291 296 293 286 246 237 223 203 198 195 186 184 185 169 163 157 152 146 142 143 150 154 153 145 154 161 166 167
278 289 276 280 282 291 304 312 307 306 299 303 309 310 310 300 294 285 288 276 259 229 215 207 199 197 187 187 185 170 157 156 148 141 138 144 148 147 148 142 167 164 170 175
289 298 290 281 290 310 296 318 326 324 321 324 321 309 299 292 290 291 284 281 266 234 206 194 192 193 192 186 181 165 159 154 147 141 141 144 142 144 144 158 167 171 175 182
3 3 332 313 316 326 307 316 313 309 317 320 320 317 311 302 293 285 282 284 281 218 209 203 205 190 181 176 171 163 161 155 146 139 142 144 140 143 151 161 170 173 183 196